FW8150 Weather Reports


time (UTC)temp
C
wind
direction
speed
KPH
gust
KPH
rain 1hr
cm
rain 24hr
cm
rain mn
cm
humidity
%
barometer
mb
20260510192917 21 12 3.2 9.7 0.00 0.00 0.00 41 1021.0
20260510192412 22 278 1.6 6.4 0.00 0.00 0.00 39 1020.9
20260510191908 22 340 4.8 12.9 0.00 0.00 0.00 37 1020.9
20260510191404 21 355 11.3 16.1 0.00 0.00 0.00 39 1020.9
20260510190901 22 319 4.8 17.7 0.00 0.00 0.00 39 1020.8
20260510190359 21 97 3.2 11.3 0.00 0.00 0.00 43 1021.0
20260510185855 22 349 9.7 19.3 0.00 0.00 0.00 39 1020.9
20260510185353 21 47 11.3 14.5 0.00 0.00 0.00 40 1020.8
20260510184850 21 353 6.4 9.7 0.00 0.00 0.00 41 1020.8
20260510184347 21 340 11.3 16.1 0.00 0.00 0.00 41 1020.5
20260510183847 21 359 3.2 19.3 0.00 0.00 0.00 40 1020.6
20260510183343 20 15 6.4 16.1 0.00 0.00 0.00 42 1020.6
20260510182838 20 9 14.5 20.9 0.00 0.00 0.00 42 1020.6
20260510182335 21 352 8.0 17.7 0.00 0.00 0.00 41 1020.6
20260510181831 21 356 4.8 19.3 0.00 0.00 0.00 41 1020.5
20260510181329 21 76 9.7 14.5 0.00 0.00 0.00 41 1020.6
20260510180825 21 51 11.3 22.5 0.00 0.00 0.00 42 1020.7
20260510180322 20 350 16.1 17.7 0.00 0.00 0.00 40 1020.6
20260510175819 21 328 6.4 12.9 0.00 0.00 0.00 41 1020.5
20260510175315 21 40 8.0 11.3 0.00 0.00 0.00 39 1020.7
20260510174811 21 45 9.7 11.3 0.00 0.00 0.00 42 1020.5
20260510174309 20 354 8.0 14.5 0.00 0.00 0.00 42 1020.6
20260510173805 21 10 9.7 22.5 0.00 0.00 0.00 42 1020.6
20260510173301 21 20 9.7 11.3 0.00 0.00 0.00 42 1020.5
20260510172756 21 16 3.2 12.9 0.00 0.00 0.00 42 1020.5
20260510172253 21 12 3.2 16.1 0.00 0.00 0.00 44 1020.7
20260510171749 20 15 11.3 19.3 0.00 0.00 0.00 41 1020.7
20260510171247 20 352 6.4 12.9 0.00 0.00 0.00 42 1020.7
20260510170744 20 330 9.7 17.7 0.00 0.00 0.00 43 1020.8
20260510170240 20 23 3.2 17.7 0.00 0.00 0.00 45 1020.6
20260510165735 20 25 16.1 20.9 0.00 0.00 0.00 43 1020.4
20260510165232 20 31 6.4 12.9 0.00 0.00 0.00 48 1020.3
20260510164729 20 348 3.2 11.3 0.00 0.00 0.00 46 1020.5
20260510164227 21 335 6.4 9.7 0.00 0.00 0.00 45 1020.5
20260510163726 20 339 3.2 14.5 0.00 0.00 0.00 47 1020.4
20260510163222 20 9 6.4 9.7 0.00 0.00 0.00 48 1020.4
20260510162722 19 56 4.8 11.3 0.00 0.00 0.00 49 1020.2
20260510162220 20 336 9.7 12.9 0.00 0.00 0.00 49 1020.2
20260510161715 20 59 3.2 8.0 0.00 0.00 0.00 50 1020.3
20260510161211 19 19 8.0 17.7 0.00 0.00 0.00 50 1020.2
20260510160709 20 33 9.7 19.3 0.00 0.00 0.00 49 1020.3
20260510160204 20 35 6.4 11.3 0.00 0.00 0.00 48 1020.5
20260510155700 20 19 6.4 14.5 0.00 0.00 0.00 48 1020.2
20260510155156 18 343 9.7 22.5 0.00 0.00 0.00 47 1020.3
20260510154652 18 359 8.0 20.9 0.00 0.00 0.00 46 1020.3
20260510154148 19 12 14.5 17.7 0.00 0.00 0.00 49 1020.2
20260510153643 19 43 14.5 14.5 0.00 0.00 0.00 51 1020.2
20260510153140 19 39 3.2 12.9 0.00 0.00 0.00 49 1020.2
20260510152636 19 356 14.5 19.3 0.00 0.00 0.00 50 1020.7
20260510152132 19 33 8.0 14.5 0.00 0.00 0.00 47 1020.3
20260510151629 19 32 12.9 20.9 0.00 0.00 0.00 46 1020.1
20260510151128 19 19 17.7 24.1 0.00 0.00 0.00 50 1020.3
20260510150628 19 341 3.2 8.0 0.00 0.00 0.00 52 1020.4
20260510150124 18 349 16.1 24.1 0.00 0.00 0.00 53 1020.1
20260510145620 18 17 11.3 17.7 0.00 0.00 0.00 53 1020.1
20260510145117 18 36 6.4 9.7 0.00 0.00 0.00 54 1020.3
20260510144613 18 13 9.7 9.7 0.00 0.00 0.00 54 1020.0
20260510144109 18 74 3.2 9.7 0.00 0.00 0.00 54 1020.0
20260510143605 18 120 3.2 9.7 0.00 0.00 0.00 56 1019.7
20260510143101 17 52 4.8 17.7 0.00 0.00 0.00 56 1019.7
20260510142558 17 355 6.4 20.9 0.00 0.00 0.00 56 1019.6
20260510142055 17 358 12.9 16.1 0.00 0.00 0.00 58 1019.8
20260510141551 17 338 12.9 17.7 0.00 0.00 0.00 56 1019.8
20260510141049 17 89 1.6 14.5 0.00 0.00 0.00 61 1019.7
20260510140545 16 345 9.7 29.0 0.00 0.00 0.00 62 1019.7
20260510140045 16 354 11.3 19.3 0.00 0.00 0.00 64 1019.3
20260510135541 16 28 11.3 19.3 0.00 0.00 0.00 65 1019.5
20260510135037 16 27 9.7 22.5 0.00 0.00 0.00 66 1019.1
20260510134534 17 53 8.0 9.7 0.00 0.00 0.00 65 1019.0
20260510134031 17 49 6.4 9.7 0.00 0.00 0.00 67 1019.1
20260510133527 17 4 3.2 12.9 0.00 0.00 0.00 69 1018.9
20260510133023 17 342 4.8 14.5 0.00 0.00 0.00 70 1018.8
20260510132520 17 6 3.2 9.7 0.00 0.00 0.00 72 1018.7
20260510132017 17 75 3.2 12.9 0.00 0.00 0.00 73 1018.6
20260510131515 17 26 6.4 9.7 0.00 0.00 0.00 74 1018.8
20260510131012 16 24 4.8 20.9 0.00 0.00 0.00 75 1018.6
20260510130508 16 354 4.8 9.7 0.00 0.00 0.00 77 1018.4
20260510130006 16 44 6.4 20.9 0.00 0.00 0.00 77 1018.3
20260510125501 16 19 11.3 12.9 0.00 0.00 0.00 79 1018.6
20260510124958 16 10 8.0 12.9 0.00 0.00 0.00 80 1018.4
20260510124454 15 15 8.0 16.1 0.00 0.00 0.00 81 1018.0
20260510123951 15 348 4.8 17.7 0.00 0.00 0.00 82 1018.1
20260510123447 15 354 9.7 12.9 0.00 0.00 0.00 82 1018.1
20260510122943 15 13 11.3 16.1 0.00 0.00 0.00 82 1018.0
20260510122439 15 0 9.7 16.1 0.00 0.00 0.00 82 1018.0
20260510121935 15 6 11.3 17.7 0.00 0.00 0.00 82 1017.8
20260510121432 15 349 8.0 16.1 0.00 0.00 0.00 84 1018.0
20260510120930 15 0 9.7 16.1 0.00 0.00 0.00 86 1018.1
20260510120427 15 345 9.7 14.5 0.00 0.00 0.00 87 1017.7
20260510115923 15 15 4.8 12.9 0.00 0.00 0.00 87 1017.7
20260510115420 15 24 6.4 9.7 0.00 0.00 0.00 87 1017.6
20260510114915 15 319 4.8 8.0 0.00 0.00 0.00 88 1017.3
20260510114414 15 348 6.4 8.0 0.00 0.00 0.00 88 1017.4
20260510113914 15 5 3.2 8.0 0.00 0.00 0.00 88 1017.2
20260510113409 15 350 4.8 9.7 0.00 0.00 0.00 88 1017.2
20260510112907 15 337 3.2 4.8 0.00 0.00 0.00 87 1017.0
20260510112404 15 348 3.2 6.4 0.00 0.00 0.00 86 1017.0
20260510111900 15 350 4.8 9.7 0.00 0.00 0.00 86 1016.8
20260510111356 15 0 4.8 6.4 0.00 0.00 0.00 86 1016.9
20260510110852 15 352 6.4 9.7 0.00 0.00 0.00 86 1016.9
20260510110349 15 345 3.2 6.4 0.00 0.00 0.00 86 1016.8
20260510105845 15 349 3.2 6.4 0.00 0.00 0.00 85 1017.0
20260510105344 15 330 4.8 6.4 0.00 0.00 0.00 85 1016.8
20260510104841 15 336 3.2 9.7 0.00 0.00 0.00 84 1016.7
20260510104338 15 9 6.4 9.7 0.00 0.00 0.00 83 1016.4
20260510103834 15 2 6.4 14.5 0.00 0.00 0.00 83 1016.5
20260510103331 15 8 4.8 9.7 0.00 0.00 0.00 82 1016.4
20260510102827 15 348 3.2 6.4 0.00 0.00 0.00 82 1016.1
20260510102323 15 347 4.8 4.8 0.00 0.00 0.00 81 1016.1
20260510101820 15 319 6.4 9.7 0.00 0.00 0.00 81 1016.1
20260510101318 15 13 8.0 9.7 0.00 0.00 0.00 81 1016.2
20260510100814 15 0 4.8 12.9 0.00 0.00 0.00 81 1016.2
20260510100313 13 5 3.2 4.8 0.00 0.00 0.00 82 1016.1
20260510095808 13 349 3.2 4.8 0.00 0.00 0.00 82 1016.0
20260510095305 13 325 1.6 3.2 0.00 0.00 0.00 81 1015.9
20260510094802 13 327 3.2 3.2 0.00 0.00 0.00 81 1015.8
20260510094257 14 260 1.6 3.2 0.00 0.00 0.00 82 1015.7
20260510093753 14 246 0.0 1.6 0.00 0.00 0.00 82 1015.6
20260510093251 14 14 0.0 3.2 0.00 0.00 0.00 81 1015.3
20260510092747 14 322 0.0 0.0 0.00 0.00 0.00 78 1015.4
20260510092243 14 230 0.0 0.0 0.00 0.00 0.00 78 1015.4
20260510091738 15 186 0.0 0.0 0.00 0.00 0.00 77 1015.3
20260510091236 14 203 0.0 3.2 0.00 0.00 0.00 78 1015.4
20260510090732 14 287 0.0 0.0 0.00 0.00 0.00 80 1015.3
20260510090229 13 157 0.0 0.0 0.00 0.00 0.00 79 1015.3
20260510085725 15 124 0.0 3.2 0.00 0.00 0.00 79 1015.3
20260510085219 15 326 0.0 3.2 0.00 0.00 0.00 74 1015.3
20260510084715 15 13 3.2 3.2 0.00 0.00 0.00 74 1015.2
20260510084213 15 309 1.6 1.6 0.00 0.00 0.00 74 1015.3
20260510083709 15 328 0.0 3.2 0.00 0.00 0.00 75 1015.4
20260510083207 15 242 3.2 3.2 0.00 0.00 0.00 75 1015.2
20260510082702 15 263 1.6 3.2 0.00 0.00 0.00 76 1015.4
20260510082158 15 271 3.2 3.2 0.00 0.00 0.00 71 1015.2
20260510081653 15 291 1.6 4.8 0.00 0.00 0.00 72 1015.4
20260510081149 15 265 3.2 3.2 0.00 0.00 0.00 74 1015.1
20260510080648 14 293 0.0 3.2 0.00 0.00 0.00 77 1015.1
20260510080146 13 7 3.2 4.8 0.00 0.00 0.00 81 1014.8
20260510075642 15 5 3.2 3.2 0.00 0.00 0.00 75 1014.7
20260510075140 15 24 0.0 3.2 0.00 0.00 0.00 73 1014.9
20260510074637 15 268 1.6 3.2 0.00 0.00 0.00 75 1014.6
20260510074132 14 322 0.0 3.2 0.00 0.00 0.00 77 1014.8
20260510073629 15 334 3.2 4.8 0.00 0.00 0.00 74 1014.8
20260510073125 16 347 0.0 1.6 0.00 0.00 0.00 68 1014.6
20260510072622 16 311 0.0 3.2 0.00 0.00 0.00 65 1014.7
20260510072118 16 322 0.0 1.6 0.00 0.00 0.00 66 1014.8
20260510071614 17 246 0.0 0.0 0.00 0.00 0.00 68 1014.8
20260510071112 17 263 3.2 4.8 0.00 0.00 0.00 66 1014.8
20260510070608 17 165 0.0 3.2 0.00 0.00 0.00 67 1014.7
20260510070107 17 269 0.0 3.2 0.00 0.00 0.00 69 1015.0
20260510065602 17 147 0.0 1.6 0.00 0.00 0.00 64 1014.9
20260510065059 17 240 0.0 4.8 0.00 0.00 0.00 64 1015.0
20260510064555 17 352 0.0 0.0 0.00 0.00 0.00 63 1015.1
20260510064051 18 261 0.0 3.2 0.00 0.00 0.00 58 1015.1
20260510063549 18 254 3.2 4.8 0.00 0.00 0.00 57 1015.1
20260510063045 18 267 3.2 6.4 0.00 0.00 0.00 57 1015.1
20260510062541 18 232 4.8 9.7 0.00 0.00 0.00 59 1015.1
20260510062037 18 242 4.8 6.4 0.00 0.00 0.00 57 1015.3
20260510061533 18 234 3.2 4.8 0.00 0.00 0.00 57 1015.2
20260510061030 18 229 4.8 6.4 0.00 0.00 0.00 56 1015.1
20260510060526 18 220 1.6 4.8 0.00 0.00 0.00 59 1015.2
20260510060023 17 246 1.6 4.8 0.00 0.00 0.00 63 1015.2
20260510055519 17 210 1.6 3.2 0.00 0.00 0.00 66 1015.2
20260510055017 17 180 0.0 1.6 0.00 0.00 0.00 67 1015.2
20260510054513 17 191 0.0 3.2 0.00 0.00 0.00 68 1015.3
20260510054008 17 340 1.6 8.0 0.00 0.00 0.00 70 1015.5
20260510053502 16 317 8.0 19.3 0.00 0.00 0.00 70 1015.4
20260510053000 16 225 6.4 8.0 0.00 0.00 0.00 78 1015.1
20260510052456 15 1 8.0 16.1 0.00 0.00 0.00 79 1015.2
20260510051952 15 356 3.2 3.2 0.00 0.00 0.00 76 1014.7
20260510051448 17 307 1.6 3.2 0.00 0.00 0.00 74 1014.5
20260510050944 16 269 0.0 4.8 0.00 0.00 0.00 75 1014.4
20260510050441 15 326 0.0 3.2 0.00 0.00 0.00 83 1014.3
20260510045939 14 240 0.0 3.2 0.00 0.03 0.03 89 1014.1
20260510045436 14 154 0.0 4.8 0.00 0.03 0.03 88 1014.0
20260510044932 14 146 1.6 3.2 0.00 0.03 0.03 90 1014.0
20260510044429 14 129 0.0 4.8 0.00 0.03 0.03 90 1013.9
20260510043926 14 103 0.0 0.0 0.00 0.03 0.03 89 1014.0
20260510043422 15 131 6.4 8.0 0.00 0.03 0.03 90 1014.1
20260510042920 15 89 0.0 0.0 0.00 0.03 0.03 90 1013.9
20260510042416 15 230 0.0 0.0 0.00 0.03 0.03 91 1014.0
20260510041912 14 212 0.0 0.0 0.00 0.03 0.03 90 1013.9
20260510041409 14 135 0.0 0.0 0.00 0.03 0.03 89 1013.8
20260510040907 14 76 0.0 0.0 0.00 0.03 0.03 89 1013.7
20260510040404 15 37 0.0 0.0 0.00 0.03 0.03 88 1013.7
20260510035859 15 38 0.0 0.0 0.00 0.03 0.03 87 1013.9
20260510035355 15 353 0.0 0.0 0.00 0.03 0.03 87 1013.9
20260510034851 15 353 0.0 1.6 0.00 0.03 0.03 87 1013.9
20260510034349 15 0 0.0 0.0 0.00 0.03 0.03 86 1013.9
20260510033845 15 66 0.0 0.0 0.00 0.03 0.03 87 1013.8
20260510033341 15 38 0.0 1.6 0.00 0.03 0.03 87 1013.7
20260510032838 15 37 0.0 0.0 0.00 0.03 0.03 86 1013.7
20260510032335 15 316 1.6 1.6 0.00 0.03 0.03 85 1013.7
20260510031831 15 345 1.6 3.2 0.00 0.03 0.03 84 1013.7
20260510031327 15 0 0.0 0.0 0.00 0.03 0.03 84 1013.7
20260510030826 15 336 0.0 1.6 0.00 0.03 0.03 85 1013.6
20260510030323 16 269 0.0 0.0 0.00 0.03 0.03 84 1013.6
20260510025820 16 214 0.0 3.2 0.00 0.03 0.03 84 1013.2
20260510025318 16 326 0.0 0.0 0.00 0.03 0.03 82 1013.3
20260510024814 16 326 0.0 0.0 0.00 0.03 0.03 81 1013.3
20260510024312 17 331 0.0 0.0 0.00 0.03 0.03 80 1013.3
20260510023808 17 224 0.0 0.0 0.00 0.03 0.03 77 1013.0
20260510023304 17 224 0.0 0.0 0.00 0.03 0.03 79 1012.9
20260510022801 17 229 0.0 1.6 0.00 0.03 0.03 76 1013.0
20260510022301 18 235 0.0 0.0 0.00 0.03 0.03 73 1012.8
20260510021800 18 235 0.0 1.6 0.00 0.03 0.03 73 1012.7
20260510021258 18 142 0.0 0.0 0.00 0.03 0.03 70 1012.5
20260510020754 18 142 0.0 0.0 0.00 0.03 0.03 69 1012.5
20260510020253 19 142 0.0 0.0 0.00 0.03 0.03 67 1012.5
20260510015750 19 129 0.0 0.0 0.00 0.03 0.03 65 1012.3
20260510015246 18 129 0.0 0.0 0.00 0.03 0.03 67 1012.4
20260510014741 19 129 0.0 0.0 0.00 0.03 0.03 66 1012.2
20260510014239 20 129 0.0 0.0 0.00 0.03 0.03 64 1012.2
20260510013735 20 129 0.0 0.0 0.00 0.03 0.03 63 1012.1
20260510013230 20 142 0.0 0.0 0.00 0.03 0.03 61 1012.1
20260510012725 20 166 0.0 0.0 0.00 0.03 0.03 59 1012.1
20260510012220 20 166 0.0 0.0 0.00 0.03 0.03 58 1012.2
20260510011715 20 142 0.0 0.0 0.00 0.03 0.03 57 1012.0
20260510011211 20 129 0.0 1.6 0.00 0.03 0.03 55 1012.0
20260510010707 20 13 0.0 0.0 0.00 0.03 0.03 55 1011.9
20260510010204 21 13 0.0 0.0 0.00 0.03 0.03 55 1011.9
20260510005701 21 243 0.0 0.0 0.00 0.03 0.03 57 1011.8
20260510005157 21 242 0.0 1.6 0.00 0.03 0.03 53 1011.8
20260510004655 22 230 0.0 0.0 0.00 0.03 0.03 52 1011.6
20260510004153 22 229 0.0 0.0 0.00 0.03 0.03 53 1011.6
20260510003650 23 229 0.0 0.0 0.00 0.03 0.03 52 1011.5
20260510003146 23 242 0.0 0.0 0.00 0.03 0.03 47 1011.5
20260510002646 23 242 0.0 1.6 0.00 0.03 0.03 48 1011.5
20260510002143 24 269 0.0 4.8 0.00 0.03 0.03 47 1011.6
20260510001640 24 254 4.8 4.8 0.00 0.03 0.03 44 1011.5
20260510001138 24 246 6.4 6.4 0.00 0.03 0.03 42 1011.4
20260510000638 25 256 3.2 6.4 0.00 0.03 0.03 45 1011.4
20260510000136 25 245 4.8 4.8 0.00 0.03 0.03 40 1011.4
20260509235632 25 269 1.6 3.2 0.00 0.03 0.03 41 1011.4
20260509235129 25 233 3.2 6.4 0.00 0.03 0.03 41 1011.5
20260509234625 25 266 3.2 4.8 0.00 0.03 0.03 43 1011.3
20260509234123 25 249 3.2 4.8 0.00 0.03 0.03 42 1011.3
20260509233620 26 258 8.0 8.0 0.00 0.03 0.03 39 1011.2
20260509233118 26 253 3.2 9.7 0.00 0.03 0.03 41 1011.1
20260509232614 26 239 3.2 6.4 0.00 0.03 0.03 37 1011.4
20260509232111 26 268 3.2 4.8 0.00 0.03 0.03 37 1011.1
20260509231607 26 240 8.0 12.9 0.00 0.03 0.03 35 1011.3
20260509231105 26 223 3.2 8.0 0.00 0.03 0.03 38 1011.4
20260509230602 26 249 8.0 8.0 0.00 0.03 0.03 39 1011.4
20260509230059 26 245 8.0 14.5 0.00 0.03 0.03 36 1011.4
20260509225554 27 247 9.7 9.7 0.00 0.03 0.03 36 1011.4
20260509225050 28 280 3.2 4.8 0.00 0.03 0.03 35 1011.3
20260509224546 27 311 4.8 11.3 0.00 0.03 0.03 34 1011.3
20260509224043 27 253 4.8 8.0 0.00 0.03 0.03 36 1011.3
20260509223540 27 276 1.6 9.7 0.00 0.03 0.03 33 1011.3
20260509223038 27 246 6.4 9.7 0.00 0.03 0.03 35 1011.1
20260509222533 27 242 6.4 9.7 0.00 0.03 0.03 33 1011.2
20260509222029 27 287 3.2 8.0 0.00 0.03 0.03 34 1011.2
20260509221525 28 297 3.2 6.4 0.00 0.03 0.03 36 1010.8
20260509221021 27 301 3.2 17.7 0.00 0.03 0.03 33 1011.1
20260509220518 28 322 3.2 6.4 0.00 0.03 0.03 33 1011.0
20260509220014 28 224 4.8 4.8 0.00 0.03 0.03 33 1011.0
20260509215509 27 333 0.0 8.0 0.00 0.03 0.03 33 1011.2
20260509215007 27 257 8.0 9.7 0.00 0.03 0.03 34 1011.0
20260509214504 27 317 3.2 9.7 0.00 0.03 0.03 34 1011.0
20260509214001 27 249 12.9 17.7 0.00 0.03 0.03 34 1011.1
20260509213457 27 228 4.8 14.5 0.00 0.03 0.03 34 1011.1
20260509212954 27 278 4.8 8.0 0.00 0.03 0.03 33 1011.0
20260509212451 27 4 4.8 11.3 0.00 0.03 0.03 33 1011.2
20260509211947 28 311 3.2 8.0 0.00 0.03 0.03 32 1011.2
20260509211443 28 278 4.8 8.0 0.00 0.03 0.03 36 1011.3
20260509210940 28 256 4.8 8.0 0.00 0.03 0.03 32 1011.3
20260509210437 27 244 8.0 16.1 0.00 0.03 0.03 33 1011.5
20260509205932 27 261 9.7 9.7 0.00 0.03 0.03 34 1011.4
20260509205427 27 282 4.8 8.0 0.00 0.03 0.03 33 1011.5
20260509204923 27 237 11.3 14.5 0.00 0.03 0.03 33 1011.4
20260509204419 27 251 4.8 12.9 0.00 0.03 0.03 35 1011.5
20260509203916 27 271 9.7 17.7 0.00 0.03 0.03 34 1011.6
20260509203412 27 356 12.9 14.5 0.00 0.03 0.03 32 1011.6
20260509202910 27 248 17.7 20.9 0.00 0.03 0.03 34 1011.7
20260509202405 27 3 4.8 17.7 0.00 0.03 0.03 35 1011.7
20260509201901 27 247 6.4 14.5 0.00 0.03 0.03 34 1011.8
20260509201356 26 222 6.4 14.5 0.00 0.03 0.03 34 1011.8
20260509200854 27 288 6.4 16.1 0.00 0.03 0.03 36 1011.8
20260509200354 27 41 4.8 14.5 0.00 0.03 0.03 35 1011.9
20260509195851 27 0 9.7 12.9 0.00 0.03 0.03 34 1011.8
20260509195351 26 249 6.4 11.3 0.00 0.03 0.03 38 1011.9
20260509194851 27 6 3.2 9.7 0.00 0.03 0.03 36 1012.0
20260509194347 27 256 9.7 11.3 0.00 0.03 0.03 37 1011.9
20260509193844 27 252 9.7 11.3 0.00 0.03 0.03 36 1012.0
20260509193344 26 247 8.0 14.5 0.00 0.03 0.03 38 1012.0